Dalhart, TX

5:07 PM CDT on April 23, 2017 (GMT -0500)
Dalhart Municipal

Weather History for KDHT - November, 2013

Change the Weather History Date:

Tuesday, November 12, 2013

  Actual Average Record
Temperature  
Mean Temperature 35 °F 46 °F  
Max Temperature 42 °F 62 °F 85 °F (1973)
Min Temperature 27 °F 30 °F 14 °F (2014)
Degree Days  
Heating Degree Days 30 19  
Month to date heating degree days 205 205  
Since 1 July heating degree days 508 565  
Cooling Degree Days 0 0  
Month to date cooling degree days 0 0  
Year to date cooling degree days 1576 1138  
Moisture  
Dew Point 26 °F    
Average Humidity 74    
Maximum Humidity 92    
Minimum Humidity 55    
Precipitation  
Precipitation 0.00 in 0.02 in 0.37 in (1994)
Month to date precipitation 0.40 0.32  
Year to date precipitation 7.18 16.79  
Snow  
Snow 0.00 in 0.10 in T in (2014)
Month to date snowfall 0.0 0.4  
Since 1 July snowfall T 1.0  
Since 1 September snowfall T 1.0  
Snow Depth 0.00 in    
Sea Level Pressure  
Sea Level Pressure 30.68 in    
Wind  
Wind Speed 11 mph (NNE)    
Max Wind Speed 29 mph    
Max Gust Speed 37 mph    
Visibility 8 miles    
Events      
T = Trace of Precipitation, MM = Missing Value Source: NWS Daily Summary

Daily Weather History Graph

Daily Weather History Graph

Search for Another Location

Airport or City:

Trip Planner

Search our weather history database for the weather conditions in past years. The results will help you decide how hot, cold, wet, or windy it might be!

Date:

Astronomy

Nov. 12, 2013 Rise Set
Actual Time 7:23 AM CST 5:44 PM CST
Civil Twilight 6:56 AM CST 6:11 PM CST
Nautical Twilight 6:26 AM CST 6:42 PM CST
Astronomical Twilight 5:55 AM CST 7:12 PM CST
Moon 2:51 PM CST (11/12) 2:25 AM CST (11/12)
Length of Visible Light 11h 14m
Length of Day
10h 20m
Waxing Gibbous, 76% of the Moon is Illuminated
Nov 12
Waxing Gibbous
Nov 17
Full
Nov 25
Last Quarter
Dec 2
New
Dec 9
First Quarter

Hourly Weather History & Observations

Time (CST) Temp. Windchill Dew Point Humidity Pressure Visibility Wind Dir Wind Speed Gust Speed Precip Events Conditions
12:08 AM 30.2 °F 16.2 °F 28.4 °F 93% 30.59 in 4.0 mi NNE 25.3 mph 36.8 mph N/A   Overcast
12:48 AM 30.2 °F 15.7 °F 28.4 °F 93% 30.61 in 2.0 mi NNE 27.6 mph 34.5 mph N/A   Overcast
12:53 AM 30.0 °F 16.6 °F 28.0 °F 92% 30.57 in 1.5 mi NNE 23.0 mph 33.4 mph N/A   Overcast
1:02 AM 30.2 °F 15.9 °F 28.4 °F 93% 30.62 in 3.0 mi NNE 26.5 mph 31.1 mph N/A   Overcast
1:28 AM 28.4 °F 13.8 °F 26.6 °F 93% 30.63 in 2.0 mi NNE 25.3 mph 34.5 mph N/A   Overcast
1:41 AM 28.4 °F 14.1 °F 26.6 °F 93% 30.64 in 4.0 mi NNE 24.2 mph 33.4 mph N/A   Overcast
1:53 AM 28.9 °F 14.0 °F 27.0 °F 92% 30.60 in 6.0 mi NNE 27.6 mph 33.4 mph N/A   Overcast
2:21 AM 28.4 °F 14.7 °F 26.6 °F 93% 30.65 in 8.0 mi NNE 21.9 mph 33.4 mph N/A   Overcast
2:53 AM 28.9 °F 14.8 °F 26.1 °F 89% 30.62 in 10.0 mi NNE 24.2 mph - N/A   Overcast
3:53 AM 30.0 °F 17.2 °F 26.1 °F 85% 30.63 in 10.0 mi NNE 20.7 mph - N/A   Overcast
4:40 AM 30.2 °F 17.8 °F 24.8 °F 80% 30.69 in 10.0 mi NNE 19.6 mph 27.6 mph N/A   Overcast
4:53 AM 30.0 °F 16.9 °F 24.1 °F 79% 30.66 in 10.0 mi NNE 21.9 mph - N/A   Overcast
5:53 AM 30.0 °F 19.5 °F 25.0 °F 82% 30.70 in 10.0 mi NNE 13.8 mph - N/A   Overcast
6:53 AM 30.9 °F 21.2 °F 24.1 °F 76% 30.74 in 10.0 mi North 12.7 mph - N/A   Overcast
7:53 AM 30.9 °F 21.2 °F 24.1 °F 76% 30.77 in 10.0 mi North 12.7 mph - N/A   Overcast
8:53 AM 32.0 °F 23.0 °F 25.0 °F 75% 30.80 in 10.0 mi NNE 11.5 mph - N/A   Overcast
9:53 AM 32.0 °F 23.6 °F 24.1 °F 73% 30.82 in 10.0 mi North 10.4 mph - N/A   Overcast
10:53 AM 33.1 °F 26.1 °F 25.0 °F 72% 30.80 in 10.0 mi ENE 8.1 mph - N/A   Overcast
11:53 AM 34.0 °F 27.2 °F 25.0 °F 70% 30.80 in 10.0 mi ENE 8.1 mph - N/A   Overcast
12:53 PM 36.0 °F - 25.0 °F 64% 30.77 in 10.0 mi Calm Calm - N/A   Overcast
1:53 PM 37.9 °F - 26.1 °F 62% 30.73 in 10.0 mi Calm Calm - N/A   Mostly Cloudy
2:20 PM 39.2 °F - 26.6 °F 61% 30.68 in 10.0 mi Calm Calm - N/A   Scattered Clouds
2:53 PM 39.9 °F - 26.1 °F 58% 30.71 in 10.0 mi Calm Calm - N/A   Clear
3:53 PM 41.0 °F 37.1 °F 26.1 °F 55% 30.68 in 10.0 mi South 5.8 mph - N/A   Clear
4:53 PM 41.0 °F 39.0 °F 26.1 °F 55% 30.67 in 10.0 mi SSW 3.5 mph - N/A   Clear
5:53 PM 37.0 °F 32.4 °F 26.1 °F 65% 30.67 in 10.0 mi SSW 5.8 mph - N/A   Clear
6:53 PM 32.0 °F 25.6 °F 25.0 °F 75% 30.68 in 10.0 mi SSW 6.9 mph - N/A   Clear
7:53 PM 30.0 °F 23.2 °F 25.0 °F 82% 30.69 in 10.0 mi SSW 6.9 mph - N/A   Clear
8:53 PM 28.9 °F 21.1 °F 24.1 °F 82% 30.68 in 10.0 mi SSW 8.1 mph - N/A   Clear
9:53 PM 28.0 °F 20.8 °F 24.1 °F 85% 30.67 in 10.0 mi SSW 6.9 mph - N/A   Clear
10:53 PM 32.0 °F 23.6 °F 26.1 °F 79% 30.63 in 10.0 mi SW 10.4 mph - N/A   Clear
11:53 PM 32.0 °F 23.6 °F 27.0 °F 82% 30.61 in 10.0 mi SW 10.4 mph - N/A   Clear